Weather History for Gillette, WY

Change the Weather History Date:

Tuesday, March 12, 2013

  Actual Average Record
Temperature  
Mean Temperature 29 °F 34 °F  
Max Temperature 41 °F 46 °F 81 °F (2007)
Min Temperature 16 °F 22 °F -14 °F (1956)
Degree Days  
Heating Degree Days 36 31  
Month to date heating degree days 382 392  
Since 1 July heating degree days 5505 5800  
Cooling Degree Days 0 0  
Month to date cooling degree days 0 0  
Year to date cooling degree days 0 0  
Moisture  
Dew Point 16 °F    
Average Humidity 63    
Maximum Humidity 92    
Minimum Humidity 33    
Precipitation  
Precipitation 0.00 in 0.03 in 0.83 in (1929)
Month to date precipitation 0.02 0.30  
Year to date precipitation 1.15 1.08  
Sea Level Pressure  
Sea Level Pressure 30.27 in    
Wind  
Wind Speed 8 mph (WSW)    
Max Wind Speed 24 mph    
Max Gust Speed 28 mph    
Visibility 10 miles    
Events      
T = Trace of Precipitation, MM = Missing Value Source: NWS Daily Summary

Daily Weather History Graph

Daily Weather History Graph

Search for Another Location

Airport:

Trip Planner

Search our weather history database for the weather conditions in past years. The results will help you decide how hot, cold, wet, or windy it might be!

Date:

Astronomy

Mar. 12, 2013 Rise Set
Actual Time 7:19 AM MDT 7:04 PM MDT
Civil Twilight 6:50 AM MDT 7:33 PM MDT
Nautical Twilight 6:16 AM MDT 8:07 PM MDT
Astronomical Twilight 5:42 AM MDT 8:41 PM MDT
Moon 7:23 AM MDT (3/12) 8:27 PM MDT (3/12)
Length of Visible Light 12h 43m
Length of Day
11h 45m
New Moon, 1% of the Moon is Illuminated
Mar 12
New Moon
Mar 19
First Quarter
Mar 27
Full
Apr 2
Last Quarter
Apr 10
New

Hourly Weather History & Observations

Time (MDT) Temp. Windchill Dew Point Humidity Pressure Visibility Wind Dir Wind Speed Gust Speed Precip Events Conditions
12:53 AM 24.1 °F 11.0 °F 19.0 °F 81% 30.26 in 10.0 mi WNW 16.1 mph - N/A   Partly Cloudy
1:53 AM 23.0 °F 9.6 °F 19.0 °F 85% 30.27 in 10.0 mi NW 16.1 mph - N/A   Mostly Cloudy
2:53 AM 21.9 °F 9.2 °F 19.0 °F 89% 30.29 in 10.0 mi NW 13.8 mph - N/A   Partly Cloudy
3:53 AM 19.9 °F 7.9 °F 18.0 °F 92% 30.31 in 10.0 mi WNW 11.5 mph - N/A   Clear
4:53 AM 19.9 °F 7.3 °F 17.1 °F 89% 30.32 in 10.0 mi NW 12.7 mph - N/A   Partly Cloudy
5:53 AM 18.0 °F 7.7 °F 15.1 °F 88% 30.35 in 10.0 mi WNW 8.1 mph - N/A   Clear
6:53 AM 18.0 °F 6.9 °F 15.1 °F 88% 30.35 in 10.0 mi NNW 9.2 mph - N/A   Clear
7:53 AM 19.0 °F 11.1 °F 15.1 °F 85% 30.37 in 10.0 mi West 5.8 mph - N/A   Partly Cloudy
8:53 AM 23.0 °F 13.9 °F 16.0 °F 74% 30.38 in 10.0 mi WNW 8.1 mph - N/A   Clear
9:46 AM 24.8 °F 20.5 °F 17.6 °F 74% 30.26 in 10.0 mi North 3.5 mph - N/A   Mostly Cloudy
9:53 AM 25.0 °F - 17.1 °F 72% 30.38 in 10.0 mi Calm Calm - N/A   Mostly Cloudy
10:46 AM 26.6 °F 22.6 °F 15.8 °F 64% 30.25 in 10.0 mi Variable 3.5 mph - N/A   Scattered Clouds
10:53 AM 28.0 °F - 17.1 °F 63% 30.36 in 10.0 mi Calm Calm - N/A   Partly Cloudy
11:36 AM 30.2 °F 26.7 °F 15.8 °F 55% 30.24 in 10.0 mi Variable 3.5 mph - N/A   Mostly Cloudy
11:53 AM 30.9 °F - 15.1 °F 52% 30.35 in 10.0 mi Calm Calm - N/A   Scattered Clouds
12:53 PM 33.1 °F 27.7 °F 15.1 °F 48% 30.32 in 10.0 mi Variable 5.8 mph - N/A   Partly Cloudy
1:53 PM 35.1 °F 30.1 °F 14.0 °F 42% 30.30 in 10.0 mi SSW 5.8 mph - N/A   Clear
2:53 PM 37.0 °F - 14.0 °F 39% 30.26 in 10.0 mi Calm Calm - N/A   Clear
3:53 PM 39.9 °F - 14.0 °F 35% 30.24 in 10.0 mi Calm Calm - N/A   Clear
4:53 PM 39.9 °F 35.1 °F 12.9 °F 33% 30.22 in 10.0 mi SW 6.9 mph - N/A   Clear
5:53 PM 39.9 °F 35.8 °F 14.0 °F 35% 30.22 in 10.0 mi SW 5.8 mph - N/A   Clear
6:53 PM 39.0 °F 35.7 °F 16.0 °F 39% 30.21 in 10.0 mi South 4.6 mph - N/A   Overcast
7:53 PM 37.9 °F 35.5 °F 16.0 °F 41% 30.21 in 10.0 mi SE 3.5 mph - N/A   Overcast
8:53 PM 37.9 °F 34.4 °F 17.1 °F 43% 30.18 in 10.0 mi South 4.6 mph - N/A   Overcast
9:53 PM 39.0 °F 31.0 °F 17.1 °F 41% 30.16 in 10.0 mi South 13.8 mph - N/A   Overcast
10:53 PM 37.9 °F 28.5 °F 21.0 °F 51% 30.14 in 10.0 mi South 17.3 mph - N/A   Overcast
11:53 PM 39.0 °F 29.6 °F 19.9 °F 46% 30.12 in 10.0 mi South 18.4 mph - N/A   Overcast